When you browse on this site, cookies collect data to enhance your experience and personalize the content and advertising you see.
Visit our Privacy Policy to learn more. By continuing to use the site, you agree to this use of cookies and data.
  • In Hungary
  • List of Countries
  • For 7 days
  • Water Temperature
  • Weather Map
  • News
  • Weather Widgets
  • user-avatar
    Login

    Hourly Weather Hranice

    Today, 17 February, Monday

    Time Temperature Precipitation Wind Pressure Humidity
    00:00 +4°C° 0 mm 6 mps 741 mmHg 72%
    01:00 +4°C° 0 mm 6 mps 740 mmHg 73%
    02:00 +4°C° 0 mm 6 mps 740 mmHg 75%
    03:00 +3°C° 0 mm 5 mps 740 mmHg 76%
    04:00 +3°C° 0 mm 5 mps 740 mmHg 78%
    05:00 +4°C° 0 mm 4 mps 740 mmHg 79%
    06:00 +4°C° 0 mm 4 mps 741 mmHg 80%
    07:00 +3°C° 0 mm 3 mps 741 mmHg 85%
    08:00 +4°C° 0 mm 3 mps 741 mmHg 82%
    09:00 +5°C° 0 mm 4 mps 741 mmHg 78%
    10:00 +6°C° 0 mm 4 mps 741 mmHg 74%
    11:00 +7°C° 0 mm 4 mps 741 mmHg 72%
    12:00 +8°C° 0 mm 4 mps 741 mmHg 70%
    13:00 +9°C° 0 mm 5 mps 741 mmHg 68%
    14:00 +10°C° 0 mm 4 mps 740 mmHg 70%
    15:00 +9°C° 0 mm 3 mps 740 mmHg 72%
    16:00 +9°C° 0 mm 3 mps 740 mmHg 74%
    17:00 +8°C° 0 mm 2 mps 740 mmHg 77%
    18:00 +8°C° 0 mm 2 mps 740 mmHg 79%
    19:00 +8°C° 0 mm 2 mps 740 mmHg 82%
    20:00 +7°C° 0.1 mm 2 mps 740 mmHg 83%
    21:00 +7°C° 0.1 mm 2 mps 740 mmHg 84%
    22:00 +7°C° 0.1 mm 2 mps 740 mmHg 85%
    23:00 +7°C° 0.2 mm 3 mps 740 mmHg 87%

    Tomorrow, 18 February, Tuesday

    Time Temperature Precipitation Wind Pressure Humidity
    00:00 +7°C° 0.2 mm 3 mps 741 mmHg 89%
    01:00 +5°C° 0.2 mm 3 mps 741 mmHg 91%
    02:00 +5°C° 0.1 mm 3 mps 741 mmHg 90%
    03:00 +5°C° 0.1 mm 3 mps 742 mmHg 90%
    04:00 +5°C° 0.1 mm 3 mps 742 mmHg 89%
    05:00 +5°C° 0 mm 3 mps 742 mmHg 86%
    06:00 +4°C° 0 mm 3 mps 742 mmHg 84%
    07:00 +4°C° 0 mm 3 mps 743 mmHg 82%
    08:00 +5°C° 0 mm 5 mps 743 mmHg 76%
    09:00 +5°C° 0 mm 6 mps 743 mmHg 71%
    10:00 +6°C° 0 mm 7 mps 744 mmHg 65%
    11:00 +6°C° 0 mm 7 mps 744 mmHg 63%
    12:00 +6°C° 0 mm 7 mps 744 mmHg 61%
    13:00 +8°C° 0 mm 7 mps 744 mmHg 59%
    14:00 +7°C° 0 mm 6 mps 744 mmHg 59%
    15:00 +7°C° 0 mm 5 mps 744 mmHg 60%
    16:00 +6°C° 0 mm 5 mps 744 mmHg 61%
    17:00 +5°C° 0 mm 4 mps 744 mmHg 65%
    18:00 +4°C° 0 mm 3 mps 744 mmHg 69%
    19:00 +3°C° 0 mm 3 mps 745 mmHg 74%
    20:00 +3°C° 0 mm 3 mps 745 mmHg 76%
    21:00 +3°C° 0 mm 2 mps 745 mmHg 79%
    22:00 +3°C° 0 mm 2 mps 745 mmHg 81%
    23:00 +2°C° 0 mm 2 mps 745 mmHg 82%

    Day after tomorrow, 19 February, Wednesday

    Time Temperature Precipitation Wind Pressure Humidity
    00:00 +2°C° 0 mm 2 mps 744 mmHg 84%
    01:00 +2°C° 0 mm 2 mps 744 mmHg 85%
    02:00 +1°C° 0 mm 2 mps 744 mmHg 87%
    03:00 +1°C° 0 mm 2 mps 743 mmHg 88%
    04:00 +1°C° 0 mm 2 mps 743 mmHg 89%
    05:00 +1°C° 0 mm 2 mps 742 mmHg 89%
    06:00 +1°C° 0 mm 2 mps 742 mmHg 88%
    07:00 +1°C° 0 mm 2 mps 741 mmHg 88%
    08:00 +1°C° 0 mm 3 mps 741 mmHg 82%
    09:00 +1°C° 0 mm 4 mps 741 mmHg 75%
    10:00 +2°C° 0 mm 5 mps 740 mmHg 69%
    11:00 +3°C° 0 mm 5 mps 740 mmHg 67%
    12:00 +4°C° 0 mm 6 mps 739 mmHg 65%
    13:00 +4°C° 0 mm 7 mps 739 mmHg 63%
    14:00 +4°C° 0.2 mm 7 mps 738 mmHg 71%
    15:00 +3°C° 0.2 mm 6 mps 738 mmHg 79%
    16:00 +3°C° 0.2 mm 6 mps 737 mmHg 86%
    17:00 +2°C° 0.4 mm 5 mps 738 mmHg 84%
    18:00 +3°C° 0.4 mm 4 mps 738 mmHg 82%
    19:00 +2°C° 0.4 mm 3 mps 739 mmHg 79%
    20:00 +1°C° 0 mm 4 mps 739 mmHg 82%
    21:00 0°C° 0 mm 4 mps 739 mmHg 84%
    22:00 0°C° 0 mm 5 mps 740 mmHg 86%
    23:00 0°C° 0.2 mm 4 mps 740 mmHg 85%

    20 February, Thursday

    Time Temperature Precipitation Wind Pressure Humidity
    00:00 0°C° 0.2 mm 4 mps 741 mmHg 84%
    01:00 0°C° 0.2 mm 3 mps 741 mmHg 83%
    02:00 0°C° 0 mm 3 mps 741 mmHg 84%
    03:00 -1°C° 0 mm 3 mps 741 mmHg 85%
    04:00 -1°C° 0 mm 3 mps 742 mmHg 87%
    05:00 -1°C° 0 mm 2 mps 742 mmHg 87%
    06:00 -1°C° 0 mm 2 mps 742 mmHg 87%
    07:00 -1°C° 0 mm 2 mps 742 mmHg 87%
    08:00 0°C° 0 mm 3 mps 743 mmHg 81%
    09:00 +1°C° 0 mm 3 mps 743 mmHg 76%
    10:00 +2°C° 0 mm 3 mps 743 mmHg 70%
    11:00 +2°C° 0 mm 3 mps 743 mmHg 67%
    12:00 +3°C° 0 mm 3 mps 743 mmHg 64%
    13:00 +4°C° 0 mm 3 mps 743 mmHg 60%
    14:00 +5°C° 0 mm 2 mps 743 mmHg 60%
    15:00 +5°C° 0 mm 2 mps 743 mmHg 60%
    16:00 +5°C° 0 mm 2 mps 742 mmHg 59%
    17:00 +4°C° 0 mm 1 mps 743 mmHg 63%
    18:00 +3°C° 0 mm 1 mps 743 mmHg 67%
    19:00 +2°C° 0 mm 1 mps 743 mmHg 71%
    20:00 +2°C° 0 mm 1 mps 743 mmHg 72%
    21:00 +2°C° 0 mm 1 mps 743 mmHg 74%
    22:00 +1°C° 0 mm 2 mps 743 mmHg 75%
    23:00 +1°C° 0 mm 2 mps 743 mmHg 76%

    21 February, Friday

    Time Temperature Precipitation Wind Pressure Humidity
    00:00 -1°C° 0 mm 2 mps 742 mmHg 77%
    01:00 -1°C° 0 mm 2 mps 742 mmHg 77%
    02:00 -1°C° 0 mm 2 mps 742 mmHg 77%
    03:00 -1°C° 0 mm 2 mps 742 mmHg 77%
    04:00 -1°C° 0 mm 3 mps 742 mmHg 78%
    05:00 -1°C° 0 mm 3 mps 742 mmHg 78%
    06:00 -1°C° 0 mm 3 mps 741 mmHg 78%
    07:00 -1°C° 0 mm 3 mps 741 mmHg 79%
    14:00 +3°C° 0.1 mm 5 mps 744 mmHg 65%
    15:00 +3°C° 0.1 mm 5 mps 745 mmHg 63%
    16:00 +4°C° 0.1 mm 4 mps 745 mmHg 61%
    17:00 +3°C° 0 mm 4 mps 746 mmHg 66%
    18:00 +1°C° 0 mm 3 mps 747 mmHg 72%
    19:00 +1°C° 0 mm 2 mps 747 mmHg 77%
    20:00 +1°C° 0 mm 2 mps 748 mmHg 78%
    21:00 +2°C° 0 mm 1 mps 748 mmHg 80%
    22:00 +1°C° 0 mm 1 mps 748 mmHg 81%
    23:00 +1°C° 0 mm 1 mps 748 mmHg 81%

    22 February, Saturday

    Time Temperature Precipitation Wind Pressure Humidity
    00:00 +2°C° 0 mm 1 mps 748 mmHg 82%
    01:00 +1°C° 0 mm 2 mps 748 mmHg 82%
    02:00 +1°C° 0 mm 2 mps 748 mmHg 83%
    03:00 +1°C° 0 mm 2 mps 748 mmHg 83%
    04:00 +1°C° 0 mm 2 mps 748 mmHg 83%
    05:00 0°C° 0 mm 3 mps 747 mmHg 84%
    06:00 0°C° 0 mm 3 mps 747 mmHg 84%
    07:00 0°C° 0 mm 3 mps 747 mmHg 84%
    08:00 0°C° 0 mm 4 mps 747 mmHg 78%
    09:00 +1°C° 0 mm 5 mps 746 mmHg 73%
    10:00 +2°C° 0 mm 6 mps 746 mmHg 67%
    11:00 +2°C° 0 mm 6 mps 746 mmHg 69%
    12:00 +2°C° 0 mm 5 mps 746 mmHg 71%
    13:00 +2°C° 0 mm 5 mps 745 mmHg 74%
    14:00 +2°C° 0 mm 5 mps 745 mmHg 74%
    15:00 +2°C° 0 mm 5 mps 744 mmHg 73%
    16:00 +3°C° 0 mm 4 mps 744 mmHg 73%
    17:00 +3°C° 0 mm 4 mps 744 mmHg 73%
    18:00 +3°C° 0 mm 4 mps 744 mmHg 73%
    19:00 +3°C° 0 mm 4 mps 744 mmHg 73%
    20:00 +4°C° 0 mm 4 mps 744 mmHg 74%
    21:00 +4°C° 0 mm 4 mps 744 mmHg 76%
    22:00 +4°C° 0 mm 4 mps 744 mmHg 78%
    23:00 +4°C° 0 mm 4 mps 744 mmHg 81%
    Show more